Flag for U.S.A. Weather past 2 weeks in Hialeah, Florida, U.S.A.

Now
77 °F

Clear.


Feels Like: 78 °F
Forecast: 75 / 84 °F
Wind: No wind

Location: Opa Locka Airport

Current Time: Sep 20, 2014 at 6:56:40 AM

Latest Report: Sep 20, 2014 at 5:53 AM


Visibility: 10 mi

Pressure: 29.91 "Hg

Humidity: 94%

Dew point: 75 °F

Location of HialeahLocation

Historic Weather in Hialeah — Graph

°F

Hialeah temperature yesterday

Maximum temperature yesterday: 86 °F (at 12:53 PM)
Minimum temperature yesterday: 77 °F (at 5:53 AM)
Average temperature yesterday: 79 °F

Past Weeks' High & Low Weather Summary

 TemperatureHumidityPressure
High91 °F (Sep 5, 1:53 PM)100% (Sep 10, 6:53 AM)30.16 "Hg (Sep 10, 6:53 AM)
Low70 °F (Sep 12, 6:53 AM)47% (Sep 17, 1:53 PM)29.87 "Hg (Sep 18, 5:53 PM)
Average81 °F77%30.01 "Hg
* Reported Sep 5 4:03 AM — Sep 20 4:53 AM, Hialeah, Weather by CustomWeather, © 2014

Note: Actual official high and low records may vary slightly from our data, if they occured in-between our weather recording intervals... More about our weather records

Advertising

Hialeah weather history for previous 24 hours

 ConditionsComfort  
Time TempWeatherWind HumidityBarometerVisibility
4:53 AM
Sep 20
77 °FClear.No wind94%29.90 "Hg10 mi
3:53 AM77 °FPassing clouds.No wind94%29.90 "Hg10 mi
2:53 AM78 °FLight rain. Mostly cloudy.No wind90%29.92 "Hg10 mi
1:53 AM77 °FLight rain. Clear.No wind90%29.94 "Hg10 mi
12:53 AM77 °FClear.No wind90%29.95 "Hg10 mi
11:53 PM
Sep 19
77 °FClear.No wind90%29.98 "Hg10 mi
10:53 PM78 °FClear.No wind87%29.98 "Hg10 mi
9:53 PM77 °FClear.No wind88%29.97 "Hg10 mi
8:53 PM77 °FClear.No wind88%29.95 "Hg10 mi
7:53 PM77 °FSunny.5 mph85%29.95 "Hg10 mi
6:53 PM79 °FThundershowers. Scattered clouds.No wind79%29.93 "Hg10 mi
5:53 PM78 °FThundershowers. Sunny.5 mph84%29.92 "Hg10 mi
5:00 PM77 °FThundershowers. Cloudy.7 mph90%29.92 "Hg8 mi
3:53 PM79 °FThundershowers. Broken clouds.5 mph84%29.93 "Hg10 mi
2:53 PM78 °FThundershowers. Passing clouds.6 mph84%29.93 "Hg10 mi
1:53 PM77 °FThundershowers. Mostly cloudy.9 mph90%29.95 "Hg7 mi
12:53 PM86 °FThundershowers. Passing clouds.9 mph63%29.96 "Hg10 mi
11:53 AM82 °FThundershowers. Overcast.No wind79%29.96 "Hg10 mi
11:00 AM82 °FThundershowers. Partly sunny.18 mph72%29.96 "Hg10 mi
9:53 AM84 °FPassing clouds.7 mph67%29.96 "Hg10 mi
8:53 AM83 °FSunny.3 mph77%29.97 "Hg10 mi
7:53 AM78 °FClear.No wind87%29.95 "Hg10 mi
6:53 AM77 °FClear.No wind88%29.93 "Hg10 mi
Weather by CustomWeather, © 2014

See weather overviewHow to use our weather pages